| time (UTC) | temp F | wind direction | speed MPH | gust MPH | rain 1hr in | rain 24hr in | rain mn in | humidity % | barometer mb |
| 20260508025333 | 53 | 327 | 0.0 | 1.0 | 0.00 | 0.00 | 0.00 | 87 | 1016.1 |
| 20260508025036 | 53 | 327 | 0.0 | 1.0 | 0.00 | 0.00 | 0.00 | 87 | 1016.1 |
| 20260508024808 | 53 | 327 | 0.0 | 1.0 | 0.00 | 0.00 | 0.00 | 87 | 1015.9 |
| 20260508024332 | 53 | 326 | 0.0 | 1.0 | 0.00 | 0.00 | 0.00 | 86 | 1015.9 |
| 20260508024307 | 53 | 311 | 0.0 | 1.0 | 0.00 | 0.00 | 0.00 | 86 | 1015.9 |
| 20260508023536 | 54 | 271 | 0.0 | 1.0 | 0.00 | 0.00 | 0.00 | 86 | 1015.9 |
| 20260508023332 | 54 | 258 | 0.0 | 1.0 | 0.00 | 0.00 | 0.00 | 86 | 1015.9 |
| 20260508023036 | 54 | 256 | 0.0 | 1.0 | 0.00 | 0.00 | 0.00 | 86 | 1015.9 |
| 20260508022536 | 54 | 258 | 0.0 | 1.0 | 0.00 | 0.00 | 0.00 | 86 | 1015.9 |
| 20260508022333 | 54 | 258 | 0.0 | 1.0 | 0.00 | 0.00 | 0.00 | 86 | 1015.9 |
| 20260508022038 | 54 | 258 | 0.0 | 0.0 | 0.00 | 0.00 | 0.00 | 85 | 1016.0 |
| 20260508021536 | 54 | 258 | 0.0 | 0.0 | 0.00 | 0.00 | 0.00 | 84 | 1015.9 |
| 20260508021334 | 54 | 258 | 0.0 | 1.0 | 0.00 | 0.00 | 0.00 | 84 | 1015.9 |
| 20260508021035 | 54 | 261 | 0.0 | 1.0 | 0.00 | 0.00 | 0.00 | 84 | 1015.8 |
| 20260508020551 | 55 | 275 | 0.0 | 1.0 | 0.00 | 0.00 | 0.00 | 83 | 1016.0 |
| 20260508020332 | 54 | 281 | 0.0 | 1.0 | 0.00 | 0.00 | 0.00 | 84 | 1015.9 |
| 20260508020036 | 54 | 286 | 0.0 | 1.0 | 0.00 | 0.00 | 0.00 | 83 | 1015.9 |
| 20260508015536 | 54 | 286 | 0.0 | 1.0 | 0.00 | 0.00 | 0.00 | 83 | 1015.9 |
| 20260508015332 | 54 | 286 | 0.0 | 1.0 | 0.00 | 0.00 | 0.00 | 84 | 1016.1 |
| 20260508015035 | 54 | 286 | 0.0 | 1.0 | 0.00 | 0.00 | 0.00 | 84 | 1016.0 |
| 20260508014537 | 54 | 286 | 0.0 | 1.0 | 0.00 | 0.00 | 0.00 | 83 | 1016.0 |
| 20260508014332 | 54 | 286 | 0.0 | 1.0 | 0.00 | 0.00 | 0.00 | 83 | 1015.9 |
| 20260508014036 | 55 | 287 | 0.0 | 1.0 | 0.00 | 0.00 | 0.00 | 83 | 1016.3 |
| 20260508013536 | 55 | 288 | 0.0 | 1.0 | 0.00 | 0.00 | 0.00 | 83 | 1016.4 |
| 20260508013332 | 55 | 289 | 0.0 | 1.0 | 0.00 | 0.00 | 0.00 | 82 | 1016.4 |
| 20260508013036 | 55 | 289 | 0.0 | 1.0 | 0.00 | 0.00 | 0.00 | 82 | 1016.4 |
| 20260508012536 | 55 | 287 | 0.0 | 1.0 | 0.00 | 0.00 | 0.00 | 82 | 1016.4 |
| 20260508012332 | 54 | 283 | 0.0 | 1.0 | 0.00 | 0.00 | 0.00 | 82 | 1016.4 |
| 20260508012036 | 54 | 278 | 0.0 | 1.0 | 0.00 | 0.00 | 0.00 | 82 | 1016.3 |
| 20260508011810 | 54 | 272 | 0.0 | 1.0 | 0.00 | 0.00 | 0.00 | 83 | 1016.4 |
| 20260508011332 | 54 | 272 | 0.0 | 1.0 | 0.00 | 0.00 | 0.00 | 84 | 1016.4 |
| 20260508011032 | 54 | 272 | 0.0 | 1.0 | 0.00 | 0.00 | 0.00 | 84 | 1016.4 |
| 20260508010532 | 54 | 272 | 0.0 | 1.0 | 0.00 | 0.00 | 0.00 | 83 | 1016.4 |
| 20260508010332 | 55 | 273 | 0.0 | 1.0 | 0.00 | 0.00 | 0.00 | 83 | 1016.3 |
| 20260508010031 | 55 | 274 | 0.0 | 1.0 | 0.00 | 0.00 | 0.00 | 83 | 1016.4 |
| 20260508005532 | 55 | 275 | 0.0 | 0.0 | 0.00 | 0.00 | 0.00 | 82 | 1016.4 |
| 20260508005332 | 55 | 275 | 0.0 | 0.0 | 0.00 | 0.00 | 0.00 | 82 | 1016.5 |
| 20260508005032 | 55 | 275 | 0.0 | 0.0 | 0.00 | 0.00 | 0.00 | 81 | 1016.5 |
| 20260508004531 | 55 | 276 | 0.0 | 0.0 | 0.00 | 0.00 | 0.00 | 81 | 1016.5 |
| 20260508004332 | 55 | 276 | 0.0 | 0.0 | 0.00 | 0.00 | 0.00 | 80 | 1016.5 |
| 20260508004031 | 55 | 277 | 0.0 | 0.0 | 0.00 | 0.00 | 0.00 | 80 | 1017.0 |
| 20260508003535 | 55 | 278 | 0.0 | 3.0 | 0.00 | 0.00 | 0.00 | 79 | 1017.2 |
| 20260508003335 | 55 | 278 | 0.0 | 3.0 | 0.00 | 0.00 | 0.00 | 79 | 1017.2 |
| 20260508003031 | 55 | 278 | 0.0 | 3.0 | 0.00 | 0.00 | 0.00 | 78 | 1017.2 |
| 20260508002531 | 55 | 280 | 0.0 | 3.0 | 0.00 | 0.00 | 0.00 | 79 | 1017.2 |
| 20260508002332 | 55 | 285 | 1.0 | 3.0 | 0.00 | 0.00 | 0.00 | 80 | 1017.3 |
| 20260508002031 | 55 | 292 | 1.0 | 3.0 | 0.00 | 0.00 | 0.00 | 79 | 1017.0 |
| 20260508001533 | 55 | 331 | 0.0 | 1.0 | 0.00 | 0.00 | 0.00 | 80 | 1017.4 |
| 20260508001332 | 55 | 350 | 0.0 | 1.0 | 0.00 | 0.00 | 0.00 | 80 | 1017.4 |
| 20260508001028 | 55 | 16 | 0.0 | 1.0 | 0.00 | 0.00 | 0.00 | 80 | 1017.3 |
| 20260508000528 | 56 | 22 | 0.0 | 1.0 | 0.00 | 0.00 | 0.00 | 79 | 1017.2 |
| 20260508000331 | 56 | 22 | 0.0 | 1.0 | 0.00 | 0.00 | 0.00 | 79 | 1017.3 |
| 20260508000027 | 55 | 22 | 0.0 | 1.0 | 0.00 | 0.00 | 0.00 | 78 | 1017.4 |
| 20260507235526 | 55 | 22 | 0.0 | 0.0 | 0.00 | 0.00 | 0.00 | 78 | 1017.4 |
| 20260507235333 | 56 | 22 | 0.0 | 0.0 | 0.00 | 0.00 | 0.00 | 78 | 1017.4 |
| 20260507235026 | 56 | 22 | 0.0 | 0.0 | 0.00 | 0.00 | 0.00 | 79 | 1017.4 |
| 20260507234756 | 56 | 22 | 0.0 | 0.0 | 0.00 | 0.00 | 0.00 | 78 | 1017.4 |
| 20260507234332 | 56 | 22 | 0.0 | 0.0 | 0.00 | 0.00 | 0.00 | 78 | 1017.5 |
| 20260507234026 | 56 | 22 | 0.0 | 0.0 | 0.00 | 0.00 | 0.00 | 78 | 1017.5 |
| 20260507233525 | 56 | 22 | 0.0 | 0.0 | 0.00 | 0.00 | 0.00 | 77 | 1017.5 |
| 20260507233332 | 56 | 22 | 0.0 | 0.0 | 0.00 | 0.00 | 0.00 | 77 | 1017.6 |
| 20260507233026 | 56 | 22 | 0.0 | 0.0 | 0.00 | 0.00 | 0.00 | 78 | 1017.5 |
| 20260507232525 | 56 | 22 | 0.0 | 0.0 | 0.00 | 0.00 | 0.00 | 77 | 1017.5 |
| 20260507232333 | 56 | 22 | 0.0 | 0.0 | 0.00 | 0.00 | 0.00 | 77 | 1017.5 |
| 20260507232025 | 56 | 22 | 0.0 | 1.0 | 0.00 | 0.00 | 0.00 | 77 | 1017.6 |
| 20260507231526 | 56 | 22 | 0.0 | 1.0 | 0.00 | 0.00 | 0.00 | 77 | 1017.5 |
| 20260507231332 | 56 | 22 | 0.0 | 1.0 | 0.00 | 0.00 | 0.00 | 77 | 1017.5 |
| 20260507231022 | 56 | 24 | 0.0 | 1.0 | 0.00 | 0.00 | 0.00 | 77 | 1017.5 |
| 20260507230750 | 56 | 30 | 0.0 | 1.0 | 0.00 | 0.00 | 0.00 | 77 | 1017.5 |
| 20260507230334 | 56 | 33 | 0.0 | 1.0 | 0.00 | 0.00 | 0.00 | 77 | 1017.5 |
| 20260507230022 | 56 | 36 | 0.0 | 0.0 | 0.00 | 0.00 | 0.00 | 77 | 1017.5 |
| 20260507225518 | 56 | 39 | 0.0 | 0.0 | 0.00 | 0.00 | 0.00 | 77 | 1017.5 |
| 20260507225334 | 56 | 39 | 0.0 | 0.0 | 0.00 | 0.00 | 0.00 | 77 | 1017.5 |
| 20260507225017 | 56 | 39 | 0.0 | 0.0 | 0.00 | 0.00 | 0.00 | 76 | 1017.5 |
| 20260507224517 | 56 | 39 | 0.0 | 0.0 | 0.00 | 0.00 | 0.00 | 76 | 1017.5 |
| 20260507224332 | 56 | 39 | 0.0 | 0.0 | 0.00 | 0.00 | 0.00 | 76 | 1017.6 |
| 20260507224018 | 56 | 39 | 0.0 | 1.0 | 0.00 | 0.00 | 0.00 | 76 | 1017.5 |
| 20260507223517 | 56 | 39 | 0.0 | 1.0 | 0.00 | 0.00 | 0.00 | 76 | 1017.4 |
| 20260507223332 | 56 | 39 | 0.0 | 1.0 | 0.00 | 0.00 | 0.00 | 76 | 1017.4 |
| 20260507223014 | 56 | 39 | 0.0 | 1.0 | 0.00 | 0.00 | 0.00 | 75 | 1017.4 |
| 20260507222512 | 56 | 39 | 0.0 | 1.0 | 0.00 | 0.00 | 0.00 | 75 | 1017.4 |
| 20260507222331 | 56 | 39 | 0.0 | 1.0 | 0.00 | 0.00 | 0.00 | 76 | 1017.4 |
| 20260507222011 | 56 | 38 | 0.0 | 1.0 | 0.00 | 0.00 | 0.00 | 75 | 1017.4 |
| 20260507221513 | 56 | 27 | 0.0 | 1.0 | 0.00 | 0.00 | 0.00 | 75 | 1017.4 |
| 20260507221332 | 56 | 24 | 0.0 | 1.0 | 0.00 | 0.00 | 0.00 | 75 | 1017.4 |
| 20260507221020 | 56 | 17 | 0.0 | 0.0 | 0.00 | 0.00 | 0.00 | 76 | 1017.4 |
| 20260507220511 | 56 | 16 | 0.0 | 0.0 | 0.00 | 0.00 | 0.00 | 75 | 1017.3 |
| 20260507220335 | 56 | 17 | 0.0 | 0.0 | 0.00 | 0.00 | 0.00 | 75 | 1017.3 |
| 20260507220251 | 56 | 17 | 0.0 | 1.0 | 0.00 | 0.00 | 0.00 | 75 | 1017.3 |
| 20260507215511 | 56 | 18 | 0.0 | 1.0 | 0.00 | 0.00 | 0.00 | 74 | 1017.3 |
| 20260507215333 | 56 | 18 | 0.0 | 1.0 | 0.00 | 0.00 | 0.00 | 74 | 1017.3 |
| 20260507215243 | 56 | 18 | 0.0 | 1.0 | 0.00 | 0.00 | 0.00 | 74 | 1017.2 |
| 20260507214511 | 56 | 18 | 0.0 | 1.0 | 0.00 | 0.00 | 0.00 | 74 | 1017.2 |
| 20260507214332 | 56 | 18 | 0.0 | 1.0 | 0.00 | 0.00 | 0.00 | 74 | 1017.2 |
| 20260507214011 | 56 | 18 | 0.0 | 0.0 | 0.00 | 0.00 | 0.00 | 75 | 1017.2 |
| 20260507213515 | 56 | 17 | 0.0 | 0.0 | 0.00 | 0.00 | 0.00 | 74 | 1017.2 |
| 20260507213332 | 56 | 17 | 0.0 | 0.0 | 0.00 | 0.00 | 0.00 | 74 | 1017.2 |
| 20260507213011 | 56 | 16 | 0.0 | 0.0 | 0.00 | 0.00 | 0.00 | 74 | 1017.3 |
| 20260507212513 | 57 | 17 | 0.0 | 0.0 | 0.00 | 0.00 | 0.00 | 74 | 1017.3 |
| 20260507212332 | 57 | 17 | 0.0 | 0.0 | 0.00 | 0.00 | 0.00 | 73 | 1017.4 |
| 20260507212012 | 57 | 17 | 0.0 | 0.0 | 0.00 | 0.00 | 0.00 | 73 | 1017.3 |
| 20260507211511 | 57 | 18 | 0.0 | 1.0 | 0.00 | 0.00 | 0.00 | 73 | 1017.3 |
| 20260507211332 | 57 | 18 | 0.0 | 1.0 | 0.00 | 0.00 | 0.00 | 72 | 1017.2 |
| 20260507211011 | 57 | 18 | 0.0 | 1.0 | 0.00 | 0.00 | 0.00 | 72 | 1017.2 |
| 20260507210739 | 57 | 18 | 0.0 | 1.0 | 0.00 | 0.00 | 0.00 | 72 | 1017.2 |
| 20260507210328 | 57 | 17 | 0.0 | 1.0 | 0.00 | 0.00 | 0.00 | 71 | 1017.2 |
| 20260507210248 | 57 | 17 | 0.0 | 1.0 | 0.00 | 0.00 | 0.00 | 72 | 1017.3 |
| 20260507205511 | 57 | 17 | 0.0 | 0.0 | 0.00 | 0.00 | 0.00 | 71 | 1017.2 |
| 20260507205328 | 57 | 18 | 0.0 | 0.0 | 0.00 | 0.00 | 0.00 | 71 | 1017.2 |
| 20260507205247 | 57 | 18 | 0.0 | 0.0 | 0.00 | 0.00 | 0.00 | 72 | 1017.0 |
| 20260507205006 | 57 | 18 | 0.0 | 0.0 | 0.00 | 0.00 | 0.00 | 72 | 1017.2 |
| 20260507204326 | 57 | 18 | 0.0 | 1.0 | 0.00 | 0.00 | 0.00 | 72 | 1017.0 |
| 20260507204245 | 57 | 18 | 0.0 | 1.0 | 0.00 | 0.00 | 0.00 | 72 | 1016.8 |
| 20260507203521 | 57 | 17 | 0.0 | 1.0 | 0.00 | 0.00 | 0.00 | 71 | 1016.7 |
| 20260507203513 | 57 | 18 | 0.0 | 1.0 | 0.00 | 0.00 | 0.00 | 71 | 1016.8 |
| 20260507203457 | 57 | 18 | 0.0 | 1.0 | 0.00 | 0.00 | 0.00 | 71 | 1016.8 |
| 20260507202512 | 57 | 16 | 0.0 | 3.0 | 0.00 | 0.00 | 0.00 | 70 | 1016.8 |
| 20260507202327 | 58 | 16 | 0.0 | 3.0 | 0.00 | 0.00 | 0.00 | 70 | 1016.8 |
| 20260507202015 | 58 | 16 | 0.0 | 3.0 | 0.00 | 0.00 | 0.00 | 70 | 1016.8 |
| 20260507201512 | 58 | 16 | 0.0 | 3.0 | 0.00 | 0.00 | 0.00 | 68 | 1016.6 |
| 20260507201327 | 58 | 13 | 0.0 | 3.0 | 0.00 | 0.00 | 0.00 | 68 | 1016.7 |
| 20260507201020 | 59 | 3 | 0.0 | 3.0 | 0.00 | 0.00 | 0.00 | 65 | 1016.5 |
| 20260507201016 | 59 | 6 | 0.0 | 3.0 | 0.00 | 0.00 | 0.00 | 66 | 1016.6 |
| 20260507200327 | 59 | 8 | 0.0 | 1.0 | 0.00 | 0.00 | 0.00 | 65 | 1016.5 |
| 20260507200012 | 59 | 19 | 0.0 | 1.0 | 0.00 | 0.00 | 0.00 | 65 | 1016.5 |
| 20260507195511 | 59 | 29 | 0.0 | 1.0 | 0.00 | 0.00 | 0.00 | 66 | 1016.5 |
| 20260507195328 | 59 | 28 | 0.0 | 1.0 | 0.00 | 0.00 | 0.00 | 66 | 1016.5 |
| 20260507195012 | 59 | 24 | 0.0 | 1.0 | 0.00 | 0.00 | 0.00 | 67 | 1016.6 |
| 20260507194511 | 59 | 10 | 0.0 | 1.0 | 0.00 | 0.00 | 0.00 | 66 | 1016.6 |
| 20260507194326 | 59 | 356 | 0.0 | 1.0 | 0.00 | 0.00 | 0.00 | 65 | 1016.5 |
| 20260507194011 | 59 | 329 | 0.0 | 1.0 | 0.00 | 0.00 | 0.00 | 65 | 1016.4 |
| 20260507193511 | 59 | 303 | 0.0 | 1.0 | 0.00 | 0.00 | 0.00 | 65 | 1016.1 |
| 20260507193328 | 59 | 303 | 0.0 | 1.0 | 0.00 | 0.00 | 0.00 | 65 | 1016.1 |
| 20260507193010 | 60 | 311 | 0.0 | 1.0 | 0.00 | 0.00 | 0.00 | 65 | 1016.1 |
| 20260507192744 | 60 | 336 | 0.0 | 2.0 | 0.00 | 0.00 | 0.00 | 65 | 1016.0 |
| 20260507192330 | 60 | 342 | 0.0 | 2.0 | 0.00 | 0.00 | 0.00 | 64 | 1016.0 |
| 20260507192238 | 60 | 346 | 0.0 | 2.0 | 0.00 | 0.00 | 0.00 | 65 | 1015.9 |
| 20260507191506 | 60 | 8 | 0.0 | 2.0 | 0.00 | 0.00 | 0.00 | 64 | 1016.0 |
| 20260507191327 | 60 | 31 | 0.0 | 2.0 | 0.00 | 0.00 | 0.00 | 63 | 1016.1 |
| 20260507191238 | 60 | 100 | 0.0 | 2.0 | 0.00 | 0.00 | 0.00 | 63 | 1016.1 |
| 20260507190506 | 61 | 135 | 0.0 | 4.0 | 0.00 | 0.00 | 0.00 | 62 | 1016.0 |
| 20260507190325 | 61 | 130 | 0.0 | 4.0 | 0.00 | 0.00 | 0.00 | 61 | 1016.0 |
| 20260507190237 | 61 | 126 | 0.0 | 4.0 | 0.00 | 0.00 | 0.00 | 60 | 1016.0 |
| 20260507185506 | 61 | 114 | 0.0 | 5.0 | 0.00 | 0.00 | 0.00 | 61 | 1015.9 |
| 20260507185324 | 61 | 113 | 1.0 | 5.0 | 0.00 | 0.00 | 0.00 | 60 | 1015.9 |
| 20260507185007 | 61 | 105 | 2.0 | 5.0 | 0.00 | 0.00 | 0.00 | 60 | 1015.7 |
| 20260507184741 | 61 | 96 | 2.0 | 6.0 | 0.00 | 0.00 | 0.00 | 59 | 1015.6 |
| 20260507184325 | 61 | 91 | 2.0 | 6.0 | 0.00 | 0.00 | 0.00 | 59 | 1015.6 |
| 20260507184006 | 62 | 87 | 2.0 | 6.0 | 0.00 | 0.00 | 0.00 | 59 | 1015.6 |
| 20260507183505 | 62 | 80 | 3.0 | 8.0 | 0.00 | 0.00 | 0.00 | 59 | 1015.7 |
| 20260507183323 | 62 | 76 | 3.0 | 8.0 | 0.00 | 0.00 | 0.00 | 59 | 1015.7 |
| 20260507183006 | 62 | 75 | 3.0 | 8.0 | 0.00 | 0.00 | 0.00 | 59 | 1015.6 |
| 20260507182506 | 62 | 75 | 3.0 | 8.0 | 0.00 | 0.00 | 0.00 | 59 | 1015.6 |
| 20260507182322 | 62 | 74 | 3.0 | 8.0 | 0.00 | 0.00 | 0.00 | 59 | 1015.5 |
| 20260507182006 | 62 | 70 | 3.0 | 8.0 | 0.00 | 0.00 | 0.00 | 59 | 1015.3 |
| 20260507181506 | 62 | 58 | 3.0 | 8.0 | 0.00 | 0.00 | 0.00 | 59 | 1015.2 |
| 20260507181322 | 62 | 58 | 3.0 | 8.0 | 0.00 | 0.00 | 0.00 | 59 | 1015.1 |
| 20260507181006 | 62 | 59 | 4.0 | 8.0 | 0.00 | 0.00 | 0.00 | 58 | 1015.1 |
| 20260507180518 | 62 | 29 | 3.0 | 8.0 | 0.00 | 0.00 | 0.00 | 58 | 1015.0 |
| 20260507180511 | 62 | 53 | 3.0 | 8.0 | 0.00 | 0.00 | 0.00 | 58 | 1015.1 |
| 20260507180455 | 62 | 47 | 3.0 | 8.0 | 0.00 | 0.00 | 0.00 | 58 | 1015.1 |
| 20260507175736 | 62 | 24 | 3.0 | 8.0 | 0.00 | 0.00 | 0.00 | 58 | 1014.9 |
| 20260507175321 | 62 | 21 | 4.0 | 8.0 | 0.00 | 0.00 | 0.00 | 58 | 1015.0 |
| 20260507175007 | 62 | 25 | 4.0 | 11.0 | 0.00 | 0.00 | 0.00 | 58 | 1014.9 |
| 20260507174507 | 62 | 22 | 4.0 | 11.0 | 0.00 | 0.00 | 0.00 | 57 | 1014.9 |
| 20260507174321 | 62 | 24 | 4.0 | 11.0 | 0.00 | 0.00 | 0.00 | 57 | 1014.9 |
| 20260507174007 | 62 | 33 | 4.0 | 11.0 | 0.00 | 0.00 | 0.00 | 57 | 1014.9 |
| 20260507173505 | 63 | 61 | 2.0 | 11.0 | 0.00 | 0.00 | 0.00 | 56 | 1015.0 |
| 20260507173319 | 63 | 76 | 2.0 | 11.0 | 0.00 | 0.00 | 0.00 | 57 | 1014.9 |
| 20260507173011 | 63 | 83 | 2.0 | 5.0 | 0.00 | 0.00 | 0.00 | 57 | 1014.8 |
| 20260507173006 | 63 | 90 | 2.0 | 5.0 | 0.00 | 0.00 | 0.00 | 57 | 1014.8 |
| 20260507172319 | 63 | 94 | 2.0 | 7.0 | 0.00 | 0.00 | 0.00 | 56 | 1014.8 |
| 20260507172005 | 64 | 115 | 2.0 | 7.0 | 0.00 | 0.00 | 0.00 | 56 | 1014.8 |
| 20260507171736 | 64 | 124 | 2.0 | 8.0 | 0.00 | 0.00 | 0.00 | 57 | 1014.8 |
| 20260507171317 | 64 | 105 | 2.0 | 8.0 | 0.00 | 0.00 | 0.00 | 57 | 1014.8 |
| 20260507171006 | 64 | 75 | 2.0 | 8.0 | 0.00 | 0.00 | 0.00 | 56 | 1014.9 |
| 20260507170506 | 64 | 36 | 3.0 | 8.0 | 0.00 | 0.00 | 0.00 | 56 | 1014.8 |
| 20260507170317 | 64 | 39 | 3.0 | 9.0 | 0.00 | 0.00 | 0.00 | 56 | 1014.8 |
| 20260507170005 | 65 | 33 | 3.0 | 11.0 | 0.00 | 0.00 | 0.00 | 55 | 1014.8 |
| 20260507165506 | 65 | 41 | 3.0 | 11.0 | 0.00 | 0.00 | 0.00 | 54 | 1014.8 |
| 20260507165317 | 65 | 31 | 3.0 | 11.0 | 0.00 | 0.00 | 0.00 | 54 | 1014.8 |
| 20260507165234 | 65 | 32 | 4.0 | 11.0 | 0.00 | 0.00 | 0.00 | 54 | 1014.8 |
| 20260507164506 | 66 | 27 | 4.0 | 11.0 | 0.00 | 0.00 | 0.00 | 53 | 1014.8 |
| 20260507164320 | 66 | 35 | 4.0 | 11.0 | 0.00 | 0.00 | 0.00 | 52 | 1014.7 |
| 20260507164006 | 66 | 30 | 4.0 | 10.0 | 0.00 | 0.00 | 0.00 | 53 | 1014.7 |
| 20260507163506 | 66 | 21 | 3.0 | 10.0 | 0.00 | 0.00 | 0.00 | 52 | 1014.7 |
| 20260507163312 | 67 | 17 | 3.0 | 7.0 | 0.00 | 0.00 | 0.00 | 52 | 1014.7 |
| 20260507163007 | 67 | 27 | 3.0 | 7.0 | 0.00 | 0.00 | 0.00 | 52 | 1014.8 |
| 20260507162507 | 67 | 51 | 4.0 | 7.0 | 0.00 | 0.00 | 0.00 | 53 | 1014.7 |
| 20260507162313 | 67 | 49 | 3.0 | 7.0 | 0.00 | 0.00 | 0.00 | 52 | 1014.7 |
| 20260507162239 | 67 | 64 | 3.0 | 7.0 | 0.00 | 0.00 | 0.00 | 53 | 1014.7 |
| 20260507161741 | 68 | 137 | 2.0 | 7.0 | 0.00 | 0.00 | 0.00 | 51 | 1014.7 |
| 20260507161313 | 68 | 146 | 2.0 | 7.0 | 0.00 | 0.00 | 0.00 | 52 | 1014.7 |
| 20260507161005 | 68 | 163 | 2.0 | 7.0 | 0.00 | 0.00 | 0.00 | 52 | 1014.7 |
| 20260507160506 | 67 | 103 | 3.0 | 7.0 | 0.00 | 0.00 | 0.00 | 52 | 1014.6 |
| 20260507160312 | 67 | 95 | 3.0 | 12.0 | 0.00 | 0.00 | 0.00 | 53 | 1014.6 |
| 20260507160006 | 67 | 79 | 2.0 | 12.0 | 0.00 | 0.00 | 0.00 | 51 | 1014.6 |
| 20260507155506 | 67 | 17 | 2.0 | 12.0 | 0.00 | 0.00 | 0.00 | 52 | 1014.6 |
| 20260507155313 | 67 | 13 | 2.0 | 12.0 | 0.00 | 0.00 | 0.00 | 52 | 1014.6 |
| 20260507155006 | 67 | 20 | 3.0 | 12.0 | 0.00 | 0.00 | 0.00 | 53 | 1014.5 |
| 20260507154506 | 66 | 44 | 3.0 | 12.0 | 0.00 | 0.00 | 0.00 | 52 | 1014.4 |
| 20260507154312 | 67 | 54 | 3.0 | 9.0 | 0.00 | 0.00 | 0.00 | 51 | 1014.5 |
| 20260507154008 | 67 | 98 | 2.0 | 8.0 | 0.00 | 0.00 | 0.00 | 50 | 1014.4 |
| 20260507153734 | 68 | 124 | 2.0 | 11.0 | 0.00 | 0.00 | 0.00 | 49 | 1014.5 |
| 20260507153310 | 68 | 156 | 2.0 | 11.0 | 0.00 | 0.00 | 0.00 | 50 | 1014.5 |
| 20260507153006 | 68 | 192 | 2.0 | 11.0 | 0.00 | 0.00 | 0.00 | 51 | 1014.5 |
| 20260507152506 | 68 | 165 | 2.0 | 11.0 | 0.00 | 0.00 | 0.00 | 51 | 1014.3 |
| 20260507152311 | 67 | 53 | 2.0 | 11.0 | 0.00 | 0.00 | 0.00 | 51 | 1014.3 |
| 20260507152240 | 68 | 85 | 3.0 | 11.0 | 0.00 | 0.00 | 0.00 | 50 | 1014.4 |
| 20260507151506 | 68 | 341 | 3.0 | 8.0 | 0.00 | 0.00 | 0.00 | 52 | 1014.3 |
| 20260507151310 | 67 | 272 | 3.0 | 8.0 | 0.00 | 0.00 | 0.00 | 51 | 1014.3 |
| 20260507151006 | 68 | 339 | 3.0 | 8.0 | 0.00 | 0.00 | 0.00 | 51 | 1014.4 |
| 20260507150506 | 68 | 88 | 3.0 | 10.0 | 0.00 | 0.00 | 0.00 | 51 | 1014.4 |
| 20260507150311 | 68 | 85 | 3.0 | 10.0 | 0.00 | 0.00 | 0.00 | 51 | 1014.4 |
| 20260507150006 | 68 | 53 | 3.0 | 10.0 | 0.00 | 0.00 | 0.00 | 51 | 1014.4 |
| 20260507145515 | 68 | 26 | 3.0 | 14.0 | 0.00 | 0.00 | 0.00 | 51 | 1014.5 |
| 20260507145510 | 67 | 22 | 3.0 | 10.0 | 0.00 | 0.00 | 0.00 | 51 | 1014.5 |
| 20260507145452 | 67 | 19 | 3.0 | 14.0 | 0.00 | 0.00 | 0.00 | 51 | 1014.5 |
| 20260507144505 | 68 | 31 | 3.0 | 14.0 | 0.00 | 0.00 | 0.00 | 50 | 1014.5 |
| 20260507144311 | 68 | 36 | 4.0 | 14.0 | 0.00 | 0.00 | 0.00 | 51 | 1014.4 |
| 20260507144006 | 68 | 23 | 3.0 | 14.0 | 0.00 | 0.00 | 0.00 | 52 | 1014.1 |
| 20260507143505 | 68 | 131 | 4.0 | 14.0 | 0.00 | 0.00 | 0.00 | 52 | 1014.1 |
| 20260507143311 | 68 | 104 | 3.0 | 11.0 | 0.00 | 0.00 | 0.00 | 52 | 1014.2 |
| 20260507143006 | 67 | 35 | 4.0 | 11.0 | 0.00 | 0.00 | 0.00 | 52 | 1014.4 |
| 20260507142800 | 67 | 13 | 3.0 | 11.0 | 0.00 | 0.00 | 0.00 | 51 | 1014.4 |
| 20260507142737 | 67 | 11 | 3.0 | 11.0 | 0.00 | 0.00 | 0.00 | 51 | 1014.3 |
| 20260507141314 | 68 | 295 | 3.0 | 9.0 | 0.00 | 0.00 | 0.00 | 50 | 1014.3 |
| 20260507141007 | 68 | 266 | 2.0 | 9.0 | 0.00 | 0.00 | 0.00 | 51 | 1014.4 |
| 20260507140509 | 67 | 316 | 3.0 | 11.0 | 0.00 | 0.00 | 0.00 | 52 | 1014.5 |
| 20260507140311 | 67 | 335 | 3.0 | 11.0 | 0.00 | 0.00 | 0.00 | 51 | 1014.5 |
| 20260507140006 | 67 | 349 | 3.0 | 11.0 | 0.00 | 0.00 | 0.00 | 53 | 1014.5 |
| 20260507135505 | 67 | 357 | 3.0 | 11.0 | 0.00 | 0.00 | 0.00 | 52 | 1014.5 |
| 20260507135312 | 67 | 8 | 3.0 | 11.0 | 0.00 | 0.00 | 0.00 | 52 | 1014.5 |
| 20260507135008 | 68 | 5 | 3.0 | 11.0 | 0.00 | 0.00 | 0.00 | 51 | 1014.4 |
| 20260507134508 | 68 | 20 | 2.0 | 11.0 | 0.00 | 0.00 | 0.00 | 52 | 1014.4 |
| 20260507134311 | 68 | 23 | 2.0 | 11.0 | 0.00 | 0.00 | 0.00 | 51 | 1014.4 |
| 20260507134008 | 68 | 49 | 3.0 | 11.0 | 0.00 | 0.00 | 0.00 | 51 | 1014.5 |
| 20260507133507 | 68 | 202 | 3.0 | 9.0 | 0.00 | 0.00 | 0.00 | 53 | 1014.5 |
| 20260507133310 | 68 | 269 | 3.0 | 9.0 | 0.00 | 0.00 | 0.00 | 52 | 1014.5 |
| 20260507133244 | 68 | 268 | 3.0 | 12.0 | 0.00 | 0.00 | 0.00 | 52 | 1014.6 |
| 20260507132507 | 67 | 346 | 3.0 | 14.0 | 0.00 | 0.00 | 0.00 | 51 | 1014.4 |
| 20260507132311 | 67 | 350 | 3.0 | 14.0 | 0.00 | 0.00 | 0.00 | 53 | 1014.4 |
| 20260507132008 | 67 | 326 | 3.0 | 14.0 | 0.00 | 0.00 | 0.00 | 52 | 1014.5 |
| 20260507131505 | 67 | 247 | 4.0 | 14.0 | 0.00 | 0.00 | 0.00 | 52 | 1014.5 |
| 20260507131309 | 67 | 223 | 4.0 | 14.0 | 0.00 | 0.00 | 0.00 | 51 | 1014.7 |
| 20260507131243 | 67 | 351 | 4.0 | 14.0 | 0.00 | 0.00 | 0.00 | 51 | 1014.6 |
| 20260507130506 | 67 | 0 | 2.0 | 8.0 | 0.00 | 0.00 | 0.00 | 52 | 1014.8 |
| 20260507130309 | 68 | 0 | 3.0 | 8.0 | 0.00 | 0.00 | 0.00 | 51 | 1014.7 |
| 20260507130006 | 68 | 357 | 2.0 | 8.0 | 0.00 | 0.00 | 0.00 | 52 | 1014.7 |
| 20260507125506 | 67 | 45 | 2.0 | 11.0 | 0.00 | 0.00 | 0.00 | 52 | 1014.6 |
| 20260507125309 | 68 | 78 | 2.0 | 11.0 | 0.00 | 0.00 | 0.00 | 51 | 1014.8 |
| 20260507125006 | 67 | 90 | 3.0 | 11.0 | 0.00 | 0.00 | 0.00 | 52 | 1014.6 |
| 20260507124506 | 67 | 328 | 3.0 | 11.0 | 0.00 | 0.00 | 0.00 | 53 | 1014.7 |
| 20260507124308 | 67 | 39 | 3.0 | 11.0 | 0.00 | 0.00 | 0.00 | 52 | 1014.7 |
| 20260507124006 | 67 | 28 | 3.0 | 11.0 | 0.00 | 0.00 | 0.00 | 54 | 1014.6 |
| 20260507123504 | 66 | 19 | 3.0 | 11.0 | 0.00 | 0.00 | 0.00 | 54 | 1014.7 |
| 20260507123309 | 66 | 346 | 4.0 | 11.0 | 0.00 | 0.00 | 0.00 | 54 | 1014.7 |
| 20260507123004 | 66 | 304 | 4.0 | 11.0 | 0.00 | 0.00 | 0.00 | 55 | 1014.7 |
| 20260507122503 | 66 | 209 | 3.0 | 14.0 | 0.00 | 0.00 | 0.00 | 54 | 1014.7 |
| 20260507122309 | 66 | 187 | 3.0 | 14.0 | 0.00 | 0.00 | 0.00 | 53 | 1014.9 |
| 20260507122002 | 66 | 189 | 4.0 | 14.0 | 0.00 | 0.00 | 0.00 | 53 | 1014.7 |
| 20260507121502 | 65 | 273 | 5.0 | 14.0 | 0.00 | 0.00 | 0.00 | 54 | 1014.7 |
| 20260507121309 | 65 | 287 | 5.0 | 14.0 | 0.00 | 0.00 | 0.00 | 55 | 1014.8 |
| 20260507121001 | 65 | 215 | 5.0 | 14.0 | 0.00 | 0.00 | 0.00 | 54 | 1014.8 |
| 20260507120501 | 66 | 189 | 5.0 | 11.0 | 0.00 | 0.00 | 0.00 | 54 | 1014.8 |
| 20260507120308 | 66 | 193 | 5.0 | 11.0 | 0.00 | 0.00 | 0.00 | 55 | 1014.8 |
| 20260507115959 | 66 | 197 | 4.0 | 11.0 | 0.00 | 0.00 | 0.00 | 55 | 1014.8 |
| 20260507115500 | 66 | 280 | 3.0 | 11.0 | 0.00 | 0.00 | 0.00 | 54 | 1014.9 |
| 20260507115309 | 66 | 249 | 3.0 | 11.0 | 0.00 | 0.00 | 0.00 | 54 | 1014.9 |
| 20260507114959 | 66 | 20 | 3.0 | 12.0 | 0.00 | 0.00 | 0.00 | 56 | 1014.6 |
| 20260507114457 | 65 | 163 | 3.0 | 12.0 | 0.00 | 0.00 | 0.00 | 54 | 1014.8 |
| 20260507114308 | 65 | 160 | 3.0 | 12.0 | 0.00 | 0.00 | 0.00 | 54 | 1014.7 |
| 20260507113957 | 65 | 157 | 3.0 | 12.0 | 0.00 | 0.00 | 0.00 | 55 | 1014.4 |
| 20260507113458 | 65 | 114 | 3.0 | 12.0 | 0.00 | 0.00 | 0.00 | 54 | 1014.4 |
| 20260507113306 | 65 | 41 | 3.0 | 12.0 | 0.00 | 0.00 | 0.00 | 54 | 1014.4 |
| 20260507113225 | 65 | 127 | 3.0 | 12.0 | 0.00 | 0.00 | 0.00 | 54 | 1014.4 |
| 20260507112455 | 65 | 288 | 4.0 | 12.0 | 0.00 | 0.00 | 0.00 | 54 | 1014.6 |
| 20260507112307 | 65 | 209 | 4.0 | 12.0 | 0.00 | 0.00 | 0.00 | 55 | 1014.7 |
| 20260507111958 | 64 | 282 | 5.0 | 12.0 | 0.00 | 0.00 | 0.00 | 56 | 1014.8 |
| 20260507111456 | 64 | 345 | 5.0 | 12.0 | 0.00 | 0.00 | 0.00 | 53 | 1014.8 |
| 20260507111305 | 64 | 343 | 4.0 | 12.0 | 0.00 | 0.00 | 0.00 | 55 | 1014.8 |
| 20260507110955 | 65 | 342 | 4.0 | 12.0 | 0.00 | 0.00 | 0.00 | 56 | 1014.7 |
| 20260507110456 | 64 | 242 | 4.0 | 12.0 | 0.00 | 0.00 | 0.00 | 55 | 1014.7 |
| 20260507110305 | 64 | 271 | 5.0 | 12.0 | 0.00 | 0.00 | 0.00 | 54 | 1014.8 |
| 20260507105956 | 64 | 304 | 4.0 | 12.0 | 0.00 | 0.00 | 0.00 | 54 | 1014.8 |
| 20260507105456 | 64 | 349 | 3.0 | 11.0 | 0.00 | 0.00 | 0.00 | 52 | 1014.8 |
| 20260507105306 | 65 | 335 | 3.0 | 10.0 | 0.00 | 0.00 | 0.00 | 51 | 1014.7 |
| 20260507104956 | 65 | 34 | 2.0 | 6.0 | 0.00 | 0.00 | 0.00 | 53 | 1014.8 |
| 20260507104455 | 65 | 224 | 2.0 | 9.0 | 0.00 | 0.00 | 0.00 | 53 | 1014.8 |
| 20260507104305 | 65 | 227 | 2.0 | 9.0 | 0.00 | 0.00 | 0.00 | 54 | 1014.8 |
| 20260507103956 | 65 | 220 | 2.0 | 9.0 | 0.00 | 0.00 | 0.00 | 53 | 1014.9 |
| 20260507103456 | 65 | 207 | 3.0 | 9.0 | 0.00 | 0.00 | 0.00 | 54 | 1014.7 |
| 20260507103305 | 64 | 194 | 3.0 | 9.0 | 0.00 | 0.00 | 0.00 | 54 | 1014.8 |
| 20260507102957 | 64 | 190 | 3.0 | 9.0 | 0.00 | 0.00 | 0.00 | 54 | 1014.8 |
| 20260507102732 | 63 | 223 | 4.0 | 9.0 | 0.00 | 0.00 | 0.00 | 54 | 1014.8 |
| 20260507102307 | 63 | 221 | 4.0 | 9.0 | 0.00 | 0.00 | 0.00 | 53 | 1014.9 |
| 20260507101956 | 63 | 243 | 3.0 | 10.0 | 0.00 | 0.00 | 0.00 | 54 | 1014.7 |
| 20260507101455 | 63 | 234 | 3.0 | 15.0 | 0.00 | 0.00 | 0.00 | 54 | 1014.9 |
| 20260507101305 | 63 | 275 | 3.0 | 15.0 | 0.00 | 0.00 | 0.00 | 55 | 1014.8 |
| 20260507100957 | 63 | 241 | 3.0 | 15.0 | 0.00 | 0.00 | 0.00 | 54 | 1014.8 |
| 20260507100456 | 62 | 192 | 4.0 | 15.0 | 0.00 | 0.00 | 0.00 | 56 | 1014.8 |
| 20260507100305 | 62 | 189 | 4.0 | 15.0 | 0.00 | 0.00 | 0.00 | 56 | 1014.8 |
| 20260507095955 | 62 | 184 | 4.0 | 15.0 | 0.00 | 0.00 | 0.00 | 55 | 1014.9 |
| 20260507095455 | 61 | 183 | 4.0 | 13.0 | 0.00 | 0.00 | 0.00 | 55 | 1014.8 |
| 20260507095306 | 62 | 193 | 4.0 | 13.0 | 0.00 | 0.00 | 0.00 | 53 | 1014.9 |
| 20260507094955 | 62 | 205 | 4.0 | 13.0 | 0.00 | 0.00 | 0.00 | 55 | 1014.8 |
| 20260507094456 | 61 | 214 | 3.0 | 9.0 | 0.00 | 0.00 | 0.00 | 57 | 1014.7 |
| 20260507094303 | 61 | 159 | 3.0 | 9.0 | 0.00 | 0.00 | 0.00 | 57 | 1014.7 |
| 20260507093956 | 60 | 127 | 4.0 | 8.0 | 0.00 | 0.00 | 0.00 | 57 | 1014.7 |
| 20260507093732 | 60 | 76 | 4.0 | 8.0 | 0.00 | 0.00 | 0.00 | 56 | 1014.8 |
| 20260507093303 | 60 | 83 | 4.0 | 11.0 | 0.00 | 0.00 | 0.00 | 53 | 1014.8 |
| 20260507092955 | 59 | 75 | 3.0 | 11.0 | 0.00 | 0.00 | 0.00 | 55 | 1014.8 |
| 20260507092456 | 60 | 66 | 3.0 | 11.0 | 0.00 | 0.00 | 0.00 | 57 | 1014.8 |
| 20260507092306 | 60 | 43 | 3.0 | 11.0 | 0.00 | 0.00 | 0.00 | 58 | 1014.8 |
| 20260507091956 | 59 | 24 | 3.0 | 11.0 | 0.00 | 0.00 | 0.00 | 58 | 1014.7 |
| 20260507091732 | 58 | 37 | 3.0 | 7.0 | 0.00 | 0.00 | 0.00 | 54 | 1014.8 |
| 20260507091306 | 58 | 53 | 3.0 | 7.0 | 0.00 | 0.00 | 0.00 | 59 | 1014.8 |
| 20260507090956 | 58 | 66 | 3.0 | 7.0 | 0.00 | 0.00 | 0.00 | 59 | 1014.8 |
| 20260507090728 | 59 | 88 | 3.0 | 6.0 | 0.00 | 0.00 | 0.00 | 62 | 1014.9 |
| 20260507090303 | 59 | 121 | 2.0 | 6.0 | 0.00 | 0.00 | 0.00 | 61 | 1014.9 |
| 20260507085953 | 59 | 140 | 2.0 | 6.0 | 0.00 | 0.00 | 0.00 | 63 | 1014.8 |
| 20260507085453 | 58 | 106 | 2.0 | 9.0 | 0.00 | 0.00 | 0.00 | 65 | 1014.9 |
| 20260507085306 | 58 | 82 | 2.0 | 9.0 | 0.00 | 0.00 | 0.00 | 66 | 1014.8 |
| 20260507084954 | 58 | 39 | 2.0 | 9.0 | 0.00 | 0.00 | 0.00 | 68 | 1014.8 |
| 20260507084452 | 57 | 61 | 3.0 | 9.0 | 0.00 | 0.00 | 0.00 | 68 | 1014.8 |
| 20260507084302 | 57 | 56 | 4.0 | 9.0 | 0.00 | 0.00 | 0.00 | 68 | 1014.7 |
| 20260507083950 | 57 | 41 | 4.0 | 9.0 | 0.00 | 0.00 | 0.00 | 68 | 1014.6 |
| 20260507083450 | 58 | 7 | 3.0 | 9.0 | 0.00 | 0.00 | 0.00 | 67 | 1014.6 |
| 20260507083303 | 58 | 8 | 3.0 | 8.0 | 0.00 | 0.00 | 0.00 | 68 | 1014.7 |
| 20260507082949 | 58 | 129 | 2.0 | 8.0 | 0.00 | 0.00 | 0.00 | 67 | 1014.7 |
| 20260507082448 | 58 | 140 | 2.0 | 7.0 | 0.00 | 0.00 | 0.00 | 66 | 1014.8 |
| 20260507082306 | 58 | 147 | 2.0 | 7.0 | 0.00 | 0.00 | 0.00 | 66 | 1014.8 |
| 20260507081947 | 58 | 172 | 2.0 | 7.0 | 0.00 | 0.00 | 0.00 | 65 | 1014.8 |
| 20260507081444 | 58 | 186 | 2.0 | 7.0 | 0.00 | 0.00 | 0.00 | 64 | 1014.8 |
| 20260507081303 | 58 | 209 | 2.0 | 7.0 | 0.00 | 0.00 | 0.00 | 64 | 1014.8 |
| 20260507081153 | 58 | 222 | 1.0 | 4.0 | 0.00 | 0.00 | 0.00 | 64 | 1014.8 |
| 20260507080303 | 58 | 189 | 0.0 | 3.0 | 0.00 | 0.00 | 0.00 | 59 | 1014.9 |
| 20260507075941 | 58 | 182 | 0.0 | 3.0 | 0.00 | 0.00 | 0.00 | 58 | 1014.8 |
| 20260507075441 | 58 | 182 | 0.0 | 3.0 | 0.00 | 0.00 | 0.00 | 55 | 1014.7 |
| 20260507075306 | 57 | 189 | 1.0 | 3.0 | 0.00 | 0.00 | 0.00 | 56 | 1014.7 |
| 20260507075215 | 57 | 157 | 0.0 | 2.0 | 0.00 | 0.00 | 0.00 | 55 | 1014.7 |
| 20260507074452 | 57 | 155 | 0.0 | 3.0 | 0.00 | 0.01 | 0.00 | 55 | 1015.0 |
| 20260507074448 | 57 | 164 | 0.0 | 2.0 | 0.00 | 0.00 | 0.00 | 55 | 1014.7 |
| 20260507074432 | 58 | 156 | 0.0 | 3.0 | 0.00 | 0.01 | 0.00 | 53 | 1014.7 |
| 20260507073302 | 56 | 166 | 1.0 | 3.0 | 0.00 | 0.02 | 0.00 | 58 | 1015.0 |
| 20260507072945 | 56 | 183 | 1.0 | 3.0 | 0.00 | 0.02 | 0.00 | 59 | 1014.9 |
| 20260507072713 | 56 | 190 | 1.0 | 3.0 | 0.00 | 0.02 | 0.00 | 57 | 1014.9 |
| 20260507072301 | 56 | 182 | 0.0 | 2.0 | 0.00 | 0.02 | 0.00 | 58 | 1014.9 |
| 20260507072217 | 56 | 211 | 0.0 | 2.0 | 0.00 | 0.02 | 0.00 | 59 | 1014.8 |
| 20260507071441 | 56 | 214 | 0.0 | 1.0 | 0.00 | 0.02 | 0.00 | 61 | 1014.8 |
| 20260507071301 | 56 | 208 | 0.0 | 1.0 | 0.00 | 0.02 | 0.00 | 62 | 1014.7 |
| 20260507070940 | 55 | 89 | 0.0 | 2.0 | 0.00 | 0.02 | 0.00 | 61 | 1014.7 |
| 20260507070712 | 54 | 88 | 0.0 | 2.0 | 0.00 | 0.02 | 0.00 | 63 | 1014.6 |
| 20260507070301 | 53 | 93 | 0.0 | 2.0 | 0.00 | 0.02 | 0.00 | 61 | 1014.5 |
| 20260507065940 | 53 | 107 | 0.0 | 2.0 | 0.00 | 0.02 | 0.00 | 62 | 1014.5 |
| 20260507065438 | 53 | 188 | 1.0 | 2.0 | 0.00 | 0.02 | 0.00 | 64 | 1014.6 |
| 20260507065305 | 53 | 208 | 1.0 | 2.0 | 0.00 | 0.02 | 0.00 | 63 | 1014.5 |
| 20260507065209 | 52 | 225 | 1.0 | 2.0 | 0.00 | 0.02 | 0.00 | 63 | 1014.5 |
| 20260507064435 | 53 | 216 | 0.0 | 2.0 | 0.00 | 0.02 | 0.00 | 63 | 1014.5 |
| 20260507064304 | 53 | 194 | 0.0 | 2.0 | 0.00 | 0.02 | 0.00 | 64 | 1014.5 |
| 20260507063937 | 53 | 112 | 0.0 | 2.0 | 0.00 | 0.02 | 0.00 | 63 | 1014.6 |
| 20260507063436 | 53 | 92 | 0.0 | 1.0 | 0.00 | 0.02 | 0.00 | 67 | 1014.5 |
| 20260507063257 | 53 | 92 | 0.0 | 1.0 | 0.00 | 0.02 | 0.00 | 68 | 1014.5 |
| 20260507062936 | 52 | 83 | 0.0 | 1.0 | 0.00 | 0.02 | 0.00 | 69 | 1014.3 |
| 20260507062711 | 51 | 65 | 0.0 | 1.0 | 0.00 | 0.02 | 0.00 | 70 | 1014.3 |
| 20260507062257 | 50 | 60 | 0.0 | 1.0 | 0.00 | 0.02 | 0.00 | 70 | 1014.2 |
| 20260507061937 | 49 | 59 | 0.0 | 1.0 | 0.00 | 0.02 | 0.00 | 73 | 1014.2 |
| 20260507061441 | 48 | 59 | 0.0 | 1.0 | 0.00 | 0.02 | 0.00 | 76 | 1013.9 |
| 20260507061257 | 48 | 59 | 0.0 | 1.0 | 0.00 | 0.02 | 0.00 | 78 | 1014.0 |
| 20260507060937 | 47 | 59 | 0.0 | 1.0 | 0.00 | 0.02 | 0.00 | 79 | 1013.9 |
| 20260507060437 | 45 | 59 | 0.0 | 1.0 | 0.00 | 0.02 | 0.00 | 81 | 1013.8 |
| 20260507060257 | 45 | 52 | 0.0 | 1.0 | 0.00 | 0.02 | 0.00 | 81 | 1013.8 |
| 20260507055935 | 45 | 349 | 0.0 | 2.0 | 0.00 | 0.02 | 0.00 | 81 | 1013.7 |
| 20260507055436 | 44 | 274 | 0.0 | 2.0 | 0.00 | 0.02 | 0.00 | 81 | 1013.7 |
| 20260507055256 | 44 | 274 | 0.0 | 2.0 | 0.00 | 0.02 | 0.00 | 81 | 1013.5 |
| 20260507055207 | 44 | 283 | 0.0 | 2.0 | 0.00 | 0.02 | 0.00 | 81 | 1013.5 |
| 20260507054435 | 44 | 345 | 0.0 | 2.0 | 0.00 | 0.02 | 0.00 | 81 | 1013.5 |
| 20260507054257 | 44 | 3 | 0.0 | 2.0 | 0.00 | 0.02 | 0.00 | 81 | 1013.5 |
| 20260507053936 | 44 | 14 | 0.0 | 0.0 | 0.00 | 0.02 | 0.00 | 81 | 1013.4 |
| 20260507053436 | 44 | 14 | 0.0 | 0.0 | 0.00 | 0.02 | 0.00 | 81 | 1013.4 |
| 20260507053257 | 44 | 14 | 0.0 | 0.0 | 0.00 | 0.03 | 0.00 | 80 | 1013.4 |
| 20260507052937 | 44 | 14 | 0.0 | 1.0 | 0.00 | 0.03 | 0.00 | 80 | 1013.2 |
| 20260507052437 | 44 | 14 | 0.0 | 1.0 | 0.00 | 0.05 | 0.00 | 80 | 1013.3 |
| 20260507052257 | 44 | 14 | 0.0 | 1.0 | 0.00 | 0.05 | 0.00 | 80 | 1013.2 |
| 20260507051933 | 44 | 14 | 0.0 | 2.0 | 0.00 | 0.06 | 0.00 | 79 | 1013.2 |
| 20260507051435 | 44 | 42 | 0.0 | 2.0 | 0.00 | 0.08 | 0.00 | 80 | 1013.2 |
| 20260507051257 | 44 | 53 | 0.0 | 2.0 | 0.00 | 0.08 | 0.00 | 80 | 1013.1 |
| 20260507050934 | 44 | 74 | 0.0 | 2.0 | 0.00 | 0.09 | 0.00 | 81 | 1013.1 |
| 20260507050434 | 44 | 348 | 0.0 | 2.0 | 0.00 | 0.11 | 0.00 | 80 | 1013.0 |
| 20260507050257 | 44 | 264 | 0.0 | 2.0 | 0.00 | 0.12 | 0.00 | 80 | 1013.0 |
| 20260507045937 | 44 | 291 | 0.0 | 2.0 | 0.00 | 0.13 | 0.00 | 80 | 1013.0 |
| 20260507045434 | 44 | 3 | 0.0 | 2.0 | 0.00 | 0.15 | 0.00 | 79 | 1012.9 |
| 20260507045257 | 44 | 13 | 0.0 | 1.0 | 0.00 | 0.16 | 0.00 | 79 | 1012.8 |
| 20260507044934 | 44 | 13 | 0.0 | 1.0 | 0.00 | 0.17 | 0.00 | 79 | 1012.8 |
| 20260507044432 | 44 | 13 | 0.0 | 1.0 | 0.00 | 0.18 | 0.00 | 78 | 1012.8 |
| 20260507044257 | 44 | 11 | 0.0 | 1.0 | 0.00 | 0.18 | 0.00 | 78 | 1012.7 |
| 20260507043930 | 44 | 349 | 0.0 | 3.0 | 0.00 | 0.20 | 0.00 | 77 | 1012.9 |
| 20260507043429 | 45 | 293 | 0.0 | 3.0 | 0.00 | 0.21 | 0.00 | 76 | 1012.8 |
| 20260507043257 | 45 | 280 | 0.0 | 3.0 | 0.00 | 0.22 | 0.00 | 76 | 1012.8 |
| 20260507042931 | 45 | 286 | 0.0 | 3.0 | 0.00 | 0.24 | 0.00 | 75 | 1012.7 |
| 20260507042430 | 46 | 342 | 0.0 | 3.0 | 0.00 | 0.25 | 0.00 | 74 | 1012.9 |
| 20260507042257 | 46 | 358 | 0.0 | 3.0 | 0.00 | 0.26 | 0.00 | 74 | 1012.9 |
| 20260507042201 | 45 | 14 | 0.0 | 3.0 | 0.00 | 0.27 | 0.00 | 74 | 1012.9 |
| 20260507041428 | 46 | 5 | 1.0 | 3.0 | 0.00 | 0.28 | 0.00 | 75 | 1012.7 |
| 20260507041258 | 46 | 359 | 1.0 | 3.0 | 0.00 | 0.28 | 0.00 | 75 | 1012.7 |
| 20260507040927 | 45 | 352 | 1.0 | 3.0 | 0.00 | 0.29 | 0.00 | 75 | 1012.7 |
| 20260507040426 | 45 | 339 | 0.0 | 4.0 | 0.00 | 0.29 | 0.00 | 76 | 1012.6 |
| 20260507040257 | 45 | 346 | 0.0 | 4.0 | 0.00 | 0.30 | 0.00 | 76 | 1012.7 |
| 20260507040158 | 45 | 350 | 0.0 | 4.0 | 0.00 | 0.30 | 0.00 | 76 | 1012.7 |
| 20260507035426 | 45 | 337 | 0.0 | 4.0 | 0.00 | 0.31 | 0.00 | 76 | 1012.7 |
| 20260507035258 | 45 | 320 | 1.0 | 4.0 | 0.00 | 0.31 | 0.00 | 76 | 1012.5 |
| 20260507034926 | 45 | 290 | 1.0 | 4.0 | 0.00 | 0.31 | 0.00 | 75 | 1012.7 |
| 20260507034427 | 45 | 280 | 1.0 | 5.0 | 0.00 | 0.31 | 0.00 | 75 | 1012.8 |
| 20260507034258 | 45 | 285 | 1.0 | 6.0 | 0.00 | 0.31 | 0.00 | 75 | 1012.8 |
| 20260507033928 | 45 | 292 | 1.0 | 6.0 | 0.00 | 0.31 | 0.00 | 76 | 1013.0 |
| 20260507033427 | 45 | 288 | 1.0 | 6.0 | 0.00 | 0.31 | 0.00 | 76 | 1013.0 |
| 20260507033258 | 45 | 280 | 2.0 | 6.0 | 0.00 | 0.31 | 0.00 | 76 | 1013.0 |
| 20260507032927 | 46 | 273 | 1.0 | 6.0 | 0.00 | 0.31 | 0.00 | 75 | 1013.0 |
| 20260507032428 | 45 | 282 | 0.0 | 6.0 | 0.00 | 0.31 | 0.00 | 77 | 1013.0 |
| 20260507032258 | 45 | 285 | 0.0 | 3.0 | 0.00 | 0.31 | 0.00 | 77 | 1013.0 |
| 20260507031927 | 45 | 286 | 0.0 | 3.0 | 0.00 | 0.31 | 0.00 | 77 | 1013.1 |
| 20260507031427 | 45 | 276 | 0.0 | 3.0 | 0.00 | 0.31 | 0.00 | 78 | 1013.3 |
| 20260507031259 | 45 | 285 | 0.0 | 3.0 | 0.00 | 0.31 | 0.00 | 79 | 1013.2 |
| 20260507030925 | 44 | 309 | 0.0 | 4.0 | 0.00 | 0.31 | 0.00 | 80 | 1013.1 |
| 20260507030658 | 45 | 336 | 0.0 | 4.0 | 0.00 | 0.31 | 0.00 | 80 | 1013.1 |
| 20260507030256 | 45 | 332 | 0.0 | 4.0 | 0.00 | 0.31 | 0.00 | 80 | 1013.1 |
| 20260507025926 | 44 | 313 | 0.0 | 4.0 | 0.00 | 0.32 | 0.00 | 80 | 1013.2 |
| 20260507025426 | 44 | 261 | 0.0 | 4.0 | 0.00 | 0.32 | 0.00 | 81 | 1013.3 |